| time (UTC) | temp C | wind direction | speed KPH | gust KPH | rain 1hr cm | rain 24hr cm | rain mn cm | humidity % | barometer mb |
| 20260504050524 | 6 | 182 | 4.8 | 11.3 | 0.00 | 0.00 | 0.00 | 70 | 1013.2 |
| 20260504045521 | 7 | 195 | 6.4 | 11.3 | 0.00 | 0.00 | 0.00 | 67 | 1013.3 |
| 20260504045021 | 7 | 183 | 6.4 | 11.3 | 0.00 | 0.00 | 0.00 | 67 | 1013.3 |
| 20260504044520 | 7 | 197 | 4.8 | 9.7 | 0.00 | 0.00 | 0.00 | 67 | 1013.4 |
| 20260504044019 | 7 | 193 | 3.2 | 8.0 | 0.00 | 0.00 | 0.00 | 68 | 1013.4 |
| 20260504043519 | 7 | 203 | 4.8 | 9.7 | 0.00 | 0.00 | 0.00 | 67 | 1013.3 |
| 20260504043020 | 7 | 205 | 4.8 | 9.7 | 0.00 | 0.00 | 0.00 | 67 | 1013.3 |
| 20260504042518 | 7 | 199 | 4.8 | 9.7 | 0.00 | 0.00 | 0.00 | 68 | 1013.3 |
| 20260504042015 | 7 | 193 | 1.6 | 8.0 | 0.00 | 0.00 | 0.00 | 68 | 1013.4 |
| 20260504041524 | 7 | 191 | 1.6 | 8.0 | 0.00 | 0.00 | 0.00 | 67 | 1013.4 |
| 20260504041012 | 6 | 192 | 1.6 | 8.0 | 0.00 | 0.00 | 0.00 | 69 | 1013.4 |
| 20260504040512 | 6 | 189 | 4.8 | 8.0 | 0.00 | 0.00 | 0.00 | 70 | 1013.3 |
| 20260504040010 | 7 | 205 | 4.8 | 11.3 | 0.00 | 0.00 | 0.00 | 70 | 1013.4 |
| 20260504035510 | 6 | 180 | 3.2 | 11.3 | 0.00 | 0.00 | 0.00 | 70 | 1013.4 |
| 20260504035009 | 6 | 199 | 4.8 | 11.3 | 0.00 | 0.00 | 0.00 | 71 | 1013.4 |
| 20260504034512 | 6 | 199 | 3.2 | 9.7 | 0.00 | 0.00 | 0.00 | 72 | 1013.4 |
| 20260504034010 | 6 | 192 | 3.2 | 12.9 | 0.00 | 0.00 | 0.00 | 71 | 1013.4 |
| 20260504033509 | 6 | 210 | 3.2 | 12.9 | 0.00 | 0.00 | 0.00 | 70 | 1013.4 |
| 20260504033008 | 6 | 222 | 6.4 | 14.5 | 0.00 | 0.00 | 0.00 | 70 | 1013.4 |
| 20260504032508 | 6 | 207 | 4.8 | 14.5 | 0.00 | 0.00 | 0.00 | 71 | 1013.4 |
| 20260504032008 | 6 | 201 | 4.8 | 11.3 | 0.00 | 0.00 | 0.00 | 72 | 1013.4 |
| 20260504031509 | 6 | 193 | 6.4 | 11.3 | 0.00 | 0.00 | 0.00 | 72 | 1013.4 |
| 20260504031007 | 6 | 268 | 1.6 | 3.2 | 0.00 | 0.00 | 0.00 | 72 | 1013.4 |
| 20260504030507 | 7 | 278 | 0.0 | 3.2 | 0.00 | 0.00 | 0.00 | 69 | 1013.3 |
| 20260504030007 | 8 | 278 | 1.6 | 3.2 | 0.00 | 0.00 | 0.00 | 64 | 1013.2 |
| 20260504025508 | 7 | 278 | 1.6 | 3.2 | 0.00 | 0.00 | 0.00 | 64 | 1013.2 |
| 20260504025008 | 8 | 278 | 0.0 | 3.2 | 0.00 | 0.00 | 0.00 | 64 | 1013.1 |
| 20260504024508 | 8 | 278 | 0.0 | 3.2 | 0.00 | 0.00 | 0.00 | 63 | 1013.1 |
| 20260504024009 | 8 | 278 | 0.0 | 3.2 | 0.00 | 0.00 | 0.00 | 63 | 1013.1 |
| 20260504023507 | 8 | 278 | 0.0 | 3.2 | 0.00 | 0.00 | 0.00 | 63 | 1013.0 |
| 20260504023006 | 8 | 278 | 0.0 | 1.6 | 0.00 | 0.00 | 0.00 | 62 | 1013.1 |
| 20260504022506 | 8 | 278 | 0.0 | 1.6 | 0.00 | 0.00 | 0.00 | 63 | 1013.1 |
| 20260504022005 | 8 | 278 | 0.0 | 1.6 | 0.00 | 0.00 | 0.00 | 63 | 1013.1 |
| 20260504021506 | 8 | 278 | 0.0 | 1.6 | 0.00 | 0.00 | 0.00 | 62 | 1013.1 |
| 20260504021008 | 8 | 278 | 0.0 | 1.6 | 0.00 | 0.00 | 0.00 | 62 | 1013.0 |
| 20260504020505 | 8 | 278 | 0.0 | 3.2 | 0.00 | 0.00 | 0.00 | 62 | 1013.1 |
| 20260504020005 | 8 | 278 | 0.0 | 3.2 | 0.00 | 0.00 | 0.00 | 62 | 1013.0 |
| 20260504015505 | 8 | 278 | 0.0 | 3.2 | 0.00 | 0.00 | 0.00 | 61 | 1013.0 |
| 20260504015008 | 8 | 278 | 0.0 | 3.2 | 0.00 | 0.00 | 0.00 | 62 | 1012.9 |
| 20260504014507 | 8 | 278 | 0.0 | 3.2 | 0.00 | 0.00 | 0.00 | 62 | 1012.9 |
| 20260504014004 | 8 | 278 | 0.0 | 3.2 | 0.00 | 0.00 | 0.00 | 62 | 1012.8 |
| 20260504013504 | 8 | 278 | 0.0 | 3.2 | 0.00 | 0.00 | 0.00 | 61 | 1012.9 |
| 20260504013004 | 8 | 278 | 0.0 | 3.2 | 0.00 | 0.00 | 0.00 | 60 | 1012.9 |
| 20260504012504 | 8 | 278 | 0.0 | 3.2 | 0.00 | 0.00 | 0.00 | 59 | 1012.8 |
| 20260504012004 | 8 | 278 | 0.0 | 3.2 | 0.00 | 0.00 | 0.00 | 60 | 1012.8 |
| 20260504011504 | 9 | 278 | 0.0 | 3.2 | 0.00 | 0.00 | 0.00 | 60 | 1012.7 |
| 20260504011003 | 9 | 278 | 0.0 | 3.2 | 0.00 | 0.00 | 0.00 | 60 | 1012.7 |
| 20260504010506 | 9 | 278 | 0.0 | 4.8 | 0.00 | 0.00 | 0.00 | 59 | 1012.7 |
| 20260504010003 | 9 | 278 | 0.0 | 4.8 | 0.00 | 0.00 | 0.00 | 59 | 1012.7 |
| 20260504005503 | 9 | 280 | 0.0 | 3.2 | 0.00 | 0.00 | 0.00 | 59 | 1012.6 |
| 20260504005003 | 10 | 280 | 0.0 | 4.8 | 0.00 | 0.00 | 0.00 | 59 | 1012.7 |
| 20260504004507 | 10 | 280 | 0.0 | 4.8 | 0.00 | 0.00 | 0.00 | 58 | 1012.6 |
| 20260504004003 | 10 | 280 | 0.0 | 4.8 | 0.00 | 0.00 | 0.00 | 57 | 1012.6 |
| 20260504003502 | 10 | 280 | 0.0 | 3.2 | 0.00 | 0.00 | 0.00 | 56 | 1012.5 |
| 20260504003002 | 11 | 280 | 0.0 | 3.2 | 0.00 | 0.00 | 0.00 | 53 | 1012.5 |
| 20260504002502 | 11 | 280 | 0.0 | 3.2 | 0.00 | 0.00 | 0.00 | 53 | 1012.5 |
| 20260504002003 | 11 | 280 | 1.6 | 3.2 | 0.00 | 0.00 | 0.00 | 52 | 1012.4 |
| 20260504001502 | 11 | 280 | 0.0 | 8.0 | 0.00 | 0.00 | 0.00 | 51 | 1012.4 |
| 20260504001002 | 12 | 280 | 1.6 | 8.0 | 0.00 | 0.00 | 0.00 | 51 | 1012.4 |
| 20260504000503 | 12 | 303 | 1.6 | 6.4 | 0.00 | 0.00 | 0.00 | 50 | 1012.4 |
| 20260504000002 | 12 | 281 | 1.6 | 9.7 | 0.00 | 0.00 | 0.00 | 50 | 1012.4 |
| 20260503235501 | 12 | 284 | 0.0 | 9.7 | 0.00 | 0.00 | 0.00 | 48 | 1012.3 |
| 20260503235001 | 12 | 291 | 3.2 | 9.7 | 0.00 | 0.00 | 0.00 | 49 | 1012.3 |
| 20260503234502 | 13 | 276 | 1.6 | 12.9 | 0.00 | 0.00 | 0.00 | 48 | 1012.2 |
| 20260503234105 | 13 | 270 | 3.2 | 12.9 | 0.00 | 0.00 | 0.00 | 47 | 1012.1 |
| 20260503233600 | 13 | 296 | 3.2 | 12.9 | 0.00 | 0.00 | 0.00 | 47 | 1012.1 |
| 20260503233059 | 13 | 311 | 3.2 | 16.1 | 0.00 | 0.00 | 0.00 | 47 | 1012.1 |
| 20260503232559 | 13 | 301 | 1.6 | 16.1 | 0.00 | 0.00 | 0.00 | 46 | 1012.1 |
| 20260503232059 | 13 | 270 | 1.6 | 8.0 | 0.00 | 0.00 | 0.00 | 47 | 1012.1 |
| 20260503231559 | 13 | 296 | 1.6 | 9.7 | 0.00 | 0.00 | 0.00 | 46 | 1012.1 |
| 20260503231059 | 14 | 303 | 4.8 | 17.7 | 0.00 | 0.00 | 0.00 | 44 | 1012.0 |
| 20260503230602 | 14 | 314 | 8.0 | 17.7 | 0.00 | 0.00 | 0.00 | 44 | 1011.9 |
| 20260503225600 | 15 | 318 | 4.8 | 17.7 | 0.00 | 0.00 | 0.00 | 43 | 1011.8 |
| 20260503225058 | 15 | 321 | 4.8 | 17.7 | 0.00 | 0.00 | 0.00 | 43 | 1011.8 |
| 20260503224557 | 15 | 314 | 6.4 | 19.3 | 0.00 | 0.00 | 0.00 | 42 | 1011.9 |
| 20260503224058 | 15 | 326 | 8.0 | 20.9 | 0.00 | 0.00 | 0.00 | 41 | 1011.9 |
| 20260503223558 | 15 | 332 | 6.4 | 19.3 | 0.00 | 0.00 | 0.00 | 43 | 1011.9 |
| 20260503223156 | 15 | 359 | 8.0 | 19.3 | 0.00 | 0.00 | 0.00 | 41 | 1012.0 |
| 20260503222558 | 15 | 269 | 6.4 | 16.1 | 0.00 | 0.00 | 0.00 | 42 | 1012.0 |
| 20260503222057 | 16 | 307 | 4.8 | 12.9 | 0.00 | 0.00 | 0.00 | 43 | 1011.9 |
| 20260503221600 | 15 | 299 | 4.8 | 11.3 | 0.00 | 0.00 | 0.00 | 43 | 1012.0 |
| 20260503221056 | 15 | 290 | 4.8 | 16.1 | 0.00 | 0.00 | 0.00 | 44 | 1012.1 |
| 20260503220555 | 15 | 318 | 6.4 | 16.1 | 0.00 | 0.00 | 0.00 | 44 | 1012.1 |
| 20260503220055 | 15 | 286 | 4.8 | 16.1 | 0.00 | 0.00 | 0.00 | 45 | 1012.2 |
| 20260503215556 | 15 | 293 | 3.2 | 14.5 | 0.00 | 0.00 | 0.00 | 46 | 1012.1 |
| 20260503215055 | 15 | 272 | 4.8 | 14.5 | 0.00 | 0.00 | 0.00 | 45 | 1012.1 |
| 20260503214554 | 15 | 312 | 1.6 | 19.3 | 0.00 | 0.00 | 0.00 | 43 | 1012.0 |
| 20260503214055 | 15 | 257 | 6.4 | 19.3 | 0.00 | 0.00 | 0.00 | 43 | 1012.1 |
| 20260503213554 | 16 | 328 | 11.3 | 19.3 | 0.00 | 0.00 | 0.00 | 42 | 1012.1 |
| 20260503213053 | 15 | 285 | 6.4 | 17.7 | 0.00 | 0.00 | 0.00 | 44 | 1012.1 |
| 20260503212553 | 15 | 297 | 8.0 | 17.7 | 0.00 | 0.00 | 0.00 | 45 | 1012.1 |
| 20260503212053 | 15 | 318 | 3.2 | 17.7 | 0.00 | 0.00 | 0.00 | 45 | 1012.1 |
| 20260503211552 | 15 | 344 | 8.0 | 17.7 | 0.00 | 0.00 | 0.00 | 42 | 1012.2 |
| 20260503211052 | 16 | 307 | 3.2 | 17.7 | 0.00 | 0.00 | 0.00 | 46 | 1012.1 |
| 20260503210552 | 15 | 54 | 4.8 | 17.7 | 0.00 | 0.00 | 0.00 | 47 | 1012.1 |
| 20260503210052 | 15 | 261 | 6.4 | 17.7 | 0.00 | 0.00 | 0.00 | 46 | 1012.2 |
| 20260503205555 | 15 | 330 | 6.4 | 20.9 | 0.00 | 0.00 | 0.00 | 47 | 1012.2 |
| 20260503205052 | 15 | 287 | 8.0 | 20.9 | 0.00 | 0.00 | 0.00 | 45 | 1012.2 |
| 20260503204555 | 15 | 293 | 4.8 | 19.3 | 0.00 | 0.00 | 0.00 | 47 | 1012.2 |
| 20260503204051 | 15 | 293 | 9.7 | 25.7 | 0.00 | 0.00 | 0.00 | 44 | 1012.2 |
| 20260503203551 | 15 | 324 | 8.0 | 25.7 | 0.00 | 0.00 | 0.00 | 46 | 1012.2 |
| 20260503203056 | 15 | 282 | 9.7 | 25.7 | 0.00 | 0.00 | 0.00 | 44 | 1012.2 |
| 20260503202550 | 15 | 333 | 4.8 | 17.7 | 0.00 | 0.00 | 0.00 | 46 | 1012.3 |
| 20260503202052 | 15 | 314 | 8.0 | 20.9 | 0.00 | 0.00 | 0.00 | 46 | 1012.3 |
| 20260503201552 | 16 | 301 | 6.4 | 20.9 | 0.00 | 0.00 | 0.00 | 45 | 1012.3 |
| 20260503201050 | 16 | 308 | 6.4 | 12.9 | 0.00 | 0.00 | 0.00 | 45 | 1012.4 |
| 20260503200549 | 16 | 350 | 6.4 | 17.7 | 0.00 | 0.00 | 0.00 | 49 | 1012.4 |
| 20260503200054 | 15 | 341 | 6.4 | 17.7 | 0.00 | 0.00 | 0.00 | 48 | 1012.4 |
| 20260503195551 | 15 | 321 | 3.2 | 16.1 | 0.00 | 0.00 | 0.00 | 48 | 1012.4 |
| 20260503195049 | 15 | 289 | 4.8 | 22.5 | 0.00 | 0.00 | 0.00 | 47 | 1012.5 |
| 20260503194555 | 14 | 3 | 6.4 | 22.5 | 0.00 | 0.00 | 0.00 | 45 | 1012.7 |
| 20260503194046 | 14 | 336 | 8.0 | 20.9 | 0.00 | 0.00 | 0.00 | 45 | 1012.7 |
| 20260503193546 | 15 | 332 | 8.0 | 22.5 | 0.00 | 0.00 | 0.00 | 46 | 1012.8 |
| 20260503193044 | 15 | 359 | 6.4 | 22.5 | 0.00 | 0.00 | 0.00 | 48 | 1012.7 |
| 20260503192544 | 14 | 291 | 6.4 | 20.9 | 0.00 | 0.00 | 0.00 | 47 | 1012.8 |
| 20260503192043 | 14 | 326 | 9.7 | 27.4 | 0.00 | 0.00 | 0.00 | 45 | 1012.9 |
| 20260503191546 | 14 | 336 | 12.9 | 29.0 | 0.00 | 0.00 | 0.00 | 44 | 1013.1 |
| 20260503191043 | 15 | 335 | 9.7 | 29.0 | 0.00 | 0.00 | 0.00 | 46 | 1013.1 |
| 20260503190542 | 14 | 336 | 12.9 | 27.4 | 0.00 | 0.00 | 0.00 | 46 | 1013.0 |
| 20260503190045 | 14 | 299 | 8.0 | 19.3 | 0.00 | 0.00 | 0.00 | 49 | 1013.1 |
| 20260503185542 | 14 | 326 | 4.8 | 17.7 | 0.00 | 0.00 | 0.00 | 46 | 1013.1 |
| 20260503185041 | 14 | 318 | 6.4 | 24.1 | 0.00 | 0.00 | 0.00 | 47 | 1013.1 |
| 20260503184541 | 14 | 349 | 4.8 | 24.1 | 0.00 | 0.00 | 0.00 | 46 | 1013.2 |
| 20260503184041 | 14 | 326 | 12.9 | 29.0 | 0.00 | 0.00 | 0.00 | 46 | 1013.2 |
| 20260503183541 | 14 | 345 | 17.7 | 29.0 | 0.00 | 0.00 | 0.00 | 44 | 1013.4 |
| 20260503183040 | 14 | 8 | 16.1 | 24.1 | 0.00 | 0.00 | 0.00 | 45 | 1013.3 |
| 20260503182539 | 14 | 316 | 4.8 | 24.1 | 0.00 | 0.00 | 0.00 | 51 | 1013.4 |
| 20260503182039 | 14 | 343 | 11.3 | 24.1 | 0.00 | 0.00 | 0.00 | 45 | 1013.5 |
| 20260503181539 | 14 | 315 | 11.3 | 24.1 | 0.00 | 0.00 | 0.00 | 46 | 1013.4 |
| 20260503181038 | 14 | 351 | 8.0 | 20.9 | 0.00 | 0.00 | 0.00 | 51 | 1013.5 |
| 20260503180538 | 13 | 328 | 11.3 | 20.9 | 0.00 | 0.00 | 0.00 | 45 | 1013.5 |
| 20260503180041 | 14 | 319 | 9.7 | 22.5 | 0.00 | 0.00 | 0.00 | 50 | 1013.6 |
| 20260503175535 | 13 | 326 | 8.0 | 22.5 | 0.00 | 0.00 | 0.00 | 48 | 1013.6 |
| 20260503175035 | 13 | 276 | 6.4 | 24.1 | 0.00 | 0.00 | 0.00 | 49 | 1013.7 |
| 20260503174533 | 13 | 326 | 8.0 | 24.1 | 0.00 | 0.00 | 0.00 | 48 | 1013.7 |
| 20260503174032 | 13 | 261 | 1.6 | 22.5 | 0.00 | 0.00 | 0.00 | 48 | 1013.7 |
| 20260503173531 | 13 | 271 | 11.3 | 29.0 | 0.00 | 0.00 | 0.00 | 48 | 1013.7 |
| 20260503173030 | 13 | 318 | 11.3 | 29.0 | 0.00 | 0.00 | 0.00 | 46 | 1013.7 |
| 20260503172529 | 13 | 334 | 11.3 | 27.4 | 0.00 | 0.00 | 0.00 | 47 | 1013.8 |
| 20260503172028 | 12 | 291 | 9.7 | 24.1 | 0.00 | 0.00 | 0.00 | 54 | 1013.9 |
| 20260503171527 | 12 | 305 | 8.0 | 32.2 | 0.00 | 0.00 | 0.00 | 49 | 1013.9 |
| 20260503171031 | 12 | 331 | 4.8 | 32.2 | 0.00 | 0.00 | 0.00 | 51 | 1013.9 |
| 20260503170527 | 12 | 299 | 8.0 | 22.5 | 0.00 | 0.00 | 0.00 | 50 | 1014.0 |
| 20260503151011 | 10 | 243 | 11.3 | 22.5 | 0.00 | 0.00 | 0.00 | 56 | 1015.2 |
| 20260503150510 | 10 | 345 | 4.8 | 29.0 | 0.00 | 0.00 | 0.00 | 58 | 1015.2 |
| 20260503140109 | 8 | 317 | 6.4 | 25.7 | 0.00 | 0.00 | 0.00 | 63 | 1015.4 |
| 20260503131049 | 6 | 357 | 14.5 | 24.1 | 0.00 | 0.00 | 0.00 | 67 | 1015.5 |
| 20260503130551 | 6 | 345 | 11.3 | 20.9 | 0.00 | 0.00 | 0.00 | 66 | 1015.4 |
| 20260503110530 | 2 | 282 | 1.6 | 8.0 | 0.00 | 0.00 | 0.00 | 80 | 1014.7 |
| 20260503090510 | 1 | 278 | 0.0 | 3.2 | 0.00 | 0.00 | 0.00 | 81 | 1013.3 |
| 20260503081505 | 2 | 295 | 1.6 | 6.4 | 0.00 | 0.00 | 0.00 | 80 | 1013.1 |
| 20260503081008 | 2 | 299 | 1.6 | 4.8 | 0.00 | 0.00 | 0.00 | 80 | 1013.1 |
| 20260503080504 | 2 | 301 | 1.6 | 9.7 | 0.00 | 0.00 | 0.00 | 80 | 1013.1 |
| 20260503072601 | 2 | 303 | 1.6 | 6.4 | 0.00 | 0.00 | 0.00 | 80 | 1012.8 |